Ladysmith, WI

12:42 AM CST on November 21, 2019 (GMT -0600)
Rusk County

Weather History for KRCX - October, 2019

Change the Weather History Date:

Tuesday, October 15, 2019

  Actual Average (KPBH) Record (KPBH)
Temperature  
Mean Temperature 40 °F -  
Max Temperature 45 °F 53 °F 68 °F (1996)
Min Temperature 36 °F 34 °F 23 °F (2006)
Degree Days  
Heating Degree Days 24    
Moisture  
Dew Point 39 °F    
Average Humidity 94    
Maximum Humidity 100    
Minimum Humidity 76    
Precipitation  
Precipitation 0.66 in - - ()
Sea Level Pressure  
Sea Level Pressure 29.84 in    
Wind  
Wind Speed 7 mph (NNE)    
Max Wind Speed 16 mph    
Max Gust Speed 29 mph    
Visibility 9 miles    
Events Rain , Thunderstorm    
Averages and records for this station are not official NWS values.
T = Trace of Precipitation, MM = Missing Value Source: NWS Daily Summary

Daily Weather History Graph

Daily Weather History Graph

Search for Another Location

Airport or City:

Astronomy

Oct. 15, 2019 Rise Set
Actual Time 7:20 AM CDT 6:18 PM CDT
Civil Twilight 6:50 AM CDT 6:48 PM CDT
Nautical Twilight 6:15 AM CDT 7:22 PM CDT
Astronomical Twilight 5:41 AM CDT 7:57 PM CDT
Moon 7:35 PM CDT (10/15) 8:53 AM CDT (10/15)
Length of Visible Light 11h 58m
Length of Day
10h 58m
Full, 97% of the Moon is Illuminated
Oct 15
Full
Oct 21
Last Quarter
Oct 27
New
Nov 4
First Quarter
Nov 12
Full

Hourly Weather History & Observations

Time (CDT) Temp. Windchill Dew Point Humidity Pressure Visibility Wind Dir Wind Speed Gust Speed Precip Events Conditions
12:15 AM 36.1 °F 32.3 °F 33.8 °F 91% 29.98 in 10.0 mi ESE 4.6 mph - N/A   Mostly Cloudy
12:35 AM 36.9 °F 33.1 °F 32.9 °F 86% 29.97 in 10.0 mi ESE 4.6 mph - N/A   Mostly Cloudy
12:55 AM 37.6 °F 34.0 °F 33.4 °F 85% 29.97 in 10.0 mi ESE 4.6 mph - N/A   Overcast
1:15 AM 38.3 °F 35.9 °F 34.0 °F 84% 29.97 in 10.0 mi East 3.5 mph - N/A   Overcast
1:35 AM 38.8 °F 35.4 °F 34.7 °F 85% 29.96 in 10.0 mi East 4.6 mph - N/A   Overcast
1:55 AM 39.6 °F 37.4 °F 34.7 °F 83% 29.95 in 10.0 mi East 3.5 mph - N/A   Overcast
2:15 AM 40.1 °F 36.1 °F 35.1 °F 82% 29.93 in 10.0 mi ESE 5.8 mph - N/A   Overcast
2:35 AM 40.3 °F 37.1 °F 34.7 °F 80% 29.93 in 10.0 mi East 4.6 mph - N/A   Overcast
2:55 AM 40.3 °F 36.3 °F 34.3 °F 79% 29.92 in 10.0 mi East 5.8 mph - N/A   Overcast
3:15 AM 40.3 °F 35.5 °F 34.3 °F 79% 29.91 in 10.0 mi East 6.9 mph - N/A   Overcast
3:35 AM 40.1 °F 35.3 °F 34.0 °F 79% 29.90 in 10.0 mi East 6.9 mph - N/A   Overcast
3:55 AM 40.5 °F 35.8 °F 34.0 °F 78% 29.89 in 10.0 mi East 6.9 mph - N/A   Overcast
4:15 AM 40.6 °F 35.4 °F 33.8 °F 77% 29.87 in 10.0 mi East 8.1 mph - N/A   Mostly Cloudy
4:35 AM 40.8 °F 36.2 °F 33.8 °F 76% 29.88 in 10.0 mi ESE 6.9 mph - N/A   Mostly Cloudy
4:55 AM 41.0 °F 37.1 °F 35.1 °F 79% 29.88 in 10.0 mi East 5.8 mph - N/A Rain Light Rain
5:15 AM 40.3 °F 37.1 °F 36.1 °F 85% 29.88 in 4.0 mi North 4.6 mph - 0.06 in Rain Rain
5:35 AM 40.1 °F 34.1 °F 38.7 °F 95% 29.86 in 2.0 mi East 9.2 mph - 0.19 in Thunderstorm Unknown
5:55 AM 39.7 °F 31.5 °F 39.2 °F 98% 29.78 in 3.0 mi ESE 15.0 mph 28.8 mph 0.30 in Rain Light Rain
6:15 AM 40.6 °F 35.4 °F 39.6 °F 96% 29.79 in 10.0 mi East 8.1 mph - N/A   Overcast
6:35 AM 41.0 °F - 39.7 °F 95% 29.81 in 10.0 mi Calm Calm - N/A   Mostly Cloudy
6:55 AM 41.0 °F 37.1 °F 40.3 °F 97% 29.78 in 10.0 mi East 5.8 mph - N/A   Overcast
7:15 AM 41.2 °F 39.2 °F 40.5 °F 97% 29.78 in 10.0 mi NE 3.5 mph - N/A Thunderstorm Overcast
7:35 AM 41.2 °F 38.2 °F 40.8 °F 99% 29.78 in 10.0 mi ENE 4.6 mph - N/A Thunderstorm Overcast
7:55 AM 41.4 °F 39.4 °F 41.0 °F 99% 29.78 in 10.0 mi ENE 3.5 mph - N/A Rain , Thunderstorm Light Thunderstorms and Rain
8:15 AM 41.4 °F 35.7 °F 41.0 °F 99% 29.78 in 7.0 mi North 9.2 mph - 0.03 in Rain , Thunderstorm Rain
8:35 AM 40.8 °F 36.2 °F 40.8 °F 100% 29.78 in 10.0 mi North 6.9 mph - 0.11 in Rain , Thunderstorm Light Thunderstorms and Rain
8:55 AM 41.2 °F 35.5 °F 41.2 °F 100% 29.78 in 10.0 mi NNE 9.2 mph - 0.11 in Rain , Thunderstorm Light Thunderstorms and Rain
9:15 AM 41.4 °F 38.4 °F 41.4 °F 100% 29.78 in 4.0 mi NE 4.6 mph - 0.05 in Rain , Thunderstorm Heavy Thunderstorms and Rain
9:35 AM 41.2 °F 37.3 °F 41.2 °F 100% 29.79 in 10.0 mi North 5.8 mph - 0.07 in Thunderstorm Mostly Cloudy
9:55 AM 41.4 °F 38.4 °F 41.4 °F 100% 29.79 in 10.0 mi North 4.6 mph - 0.07 in Thunderstorm Overcast
10:15 AM 41.9 °F 39.0 °F 41.9 °F 100% 29.78 in 7.0 mi NNE 4.6 mph - 0.01 in Thunderstorm Overcast
10:35 AM 43.0 °F 36.8 °F 43.0 °F 100% 29.74 in 10.0 mi ENE 11.5 mph 18.4 mph 0.01 in   Mostly Cloudy
10:55 AM 44.6 °F 41.4 °F 44.1 °F 98% 29.78 in 10.0 mi East 5.8 mph - 0.01 in   Mostly Cloudy
11:15 AM 44.8 °F 39.4 °F 43.7 °F 96% 29.74 in 10.0 mi East 10.4 mph - N/A   Overcast
11:35 AM 45.1 °F - 43.5 °F 94% 29.77 in 10.0 mi Calm Calm - N/A   Mostly Cloudy
11:55 AM 45.3 °F 44.0 °F 43.5 °F 93% 29.76 in 10.0 mi NE 3.5 mph - N/A   Overcast
12:15 PM 44.8 °F 42.4 °F 43.2 °F 94% 29.76 in 10.0 mi North 4.6 mph - N/A   Overcast
12:35 PM 45.1 °F 42.8 °F 43.7 °F 95% 29.75 in 10.0 mi North 4.6 mph - N/A   Overcast
12:55 PM 44.6 °F 40.7 °F 43.2 °F 95% 29.75 in 10.0 mi North 6.9 mph - N/A   Overcast
1:15 PM 44.2 °F 41.0 °F 43.0 °F 95% 29.76 in 10.0 mi North 5.8 mph - N/A   Overcast
1:35 PM 44.2 °F 39.7 °F 43.2 °F 96% 29.75 in 10.0 mi NNW 8.1 mph - N/A   Overcast
1:55 PM 44.1 °F 40.8 °F 43.2 °F 97% 29.75 in 10.0 mi NNW 5.8 mph - N/A   Overcast
2:15 PM 43.7 °F 38.1 °F 43.2 °F 98% 29.74 in 5.0 mi NNW 10.4 mph - N/A   Overcast
2:35 PM 43.3 °F 37.7 °F 43.2 °F 99% 29.75 in 3.0 mi NNW 10.4 mph - N/A Rain Light Rain
2:55 PM 42.1 °F 35.7 °F 42.1 °F 100% 29.76 in 4.0 mi NNW 11.5 mph 16.1 mph 0.01 in Rain Light Rain
3:15 PM 41.5 °F 35.9 °F 41.5 °F 100% 29.76 in 10.0 mi NNW 9.2 mph - 0.02 in Rain Light Rain
3:35 PM 41.0 °F 34.7 °F 40.8 °F 99% 29.77 in 7.0 mi NNW 10.4 mph 19.6 mph 0.04 in Rain Light Rain
3:55 PM 40.8 °F 33.3 °F 40.5 °F 99% 29.78 in 7.0 mi NNW 13.8 mph - 0.07 in Rain Rain
4:15 PM 39.9 °F 33.4 °F 39.4 °F 98% 29.79 in 10.0 mi NNW 10.4 mph 20.7 mph 0.01 in Rain Rain
4:35 PM 39.7 °F 32.7 °F 39.2 °F 98% 29.80 in 10.0 mi NNW 11.5 mph - 0.03 in Rain Light Rain
4:55 PM 40.1 °F 34.7 °F 39.6 °F 98% 29.81 in 7.0 mi NNW 8.1 mph - 0.05 in Rain Light Rain
5:15 PM 39.7 °F 31.9 °F 39.2 °F 98% 29.82 in 7.0 mi NNW 13.8 mph 23.0 mph 0.01 in Rain Light Rain
5:35 PM 39.6 °F 31.7 °F 39.2 °F 99% 29.83 in 10.0 mi NNW 13.8 mph 20.7 mph 0.01 in   Light Drizzle
5:55 PM 39.7 °F 31.2 °F 39.4 °F 99% 29.84 in 10.0 mi NNW 16.1 mph - 0.01 in   Light Drizzle
6:15 PM 39.7 °F 32.7 °F 39.4 °F 99% 29.84 in 10.0 mi NNW 11.5 mph 18.4 mph 0.01 in   Drizzle
6:35 PM 39.9 °F 32.5 °F 39.4 °F 98% 29.85 in 10.0 mi NNW 12.7 mph - 0.02 in Rain Light Rain
7:15 PM 39.6 °F 31.3 °F 39.0 °F 98% 29.87 in 10.0 mi NNW 15.0 mph 23.0 mph 0.01 in Rain Light Rain
7:35 PM 38.8 °F 30.8 °F 38.3 °F 98% 29.87 in 10.0 mi NNW 13.8 mph 18.4 mph 0.01 in Rain Light Rain
7:55 PM 38.7 °F 31.4 °F 38.3 °F 99% 29.88 in 10.0 mi NNW 11.5 mph 19.6 mph 0.01 in   Light Drizzle
8:15 PM 38.5 °F 29.6 °F 37.9 °F 98% 29.88 in 10.0 mi NNW 16.1 mph 26.5 mph N/A Rain Rain
8:35 PM 38.5 °F 30.7 °F 38.3 °F 99% 29.89 in 10.0 mi NW 12.7 mph - N/A   Light Drizzle
8:55 PM 38.5 °F 31.1 °F 38.3 °F 99% 29.90 in 10.0 mi NW 11.5 mph - N/A   Overcast
9:35 PM 39.2 °F 33.0 °F 38.8 °F 99% 29.91 in 10.0 mi NW 9.2 mph - N/A   Overcast
9:55 PM 39.2 °F 31.6 °F 39.2 °F 100% 29.92 in 10.0 mi NNW 12.7 mph 16.1 mph N/A   Overcast
10:15 PM 39.6 °F 32.1 °F 39.2 °F 99% 29.92 in 10.0 mi NW 12.7 mph - N/A   Overcast
10:35 PM 40.1 °F 33.6 °F 39.6 °F 98% 29.93 in 10.0 mi NNW 10.4 mph - N/A   Overcast
10:55 PM 40.1 °F 34.1 °F 39.6 °F 98% 29.93 in 10.0 mi NNW 9.2 mph 17.3 mph N/A   Overcast
11:15 PM 40.3 °F 34.4 °F 39.7 °F 98% 29.93 in 10.0 mi NW 9.2 mph - N/A   Overcast
11:35 PM 40.5 °F 33.6 °F 40.1 °F 99% 29.93 in 10.0 mi NW 11.5 mph - N/A   Overcast
11:55 PM 40.6 °F 33.8 °F 40.1 °F 98% 29.93 in 10.0 mi NW 11.5 mph 16.1 mph N/A   Overcast